Time,TemperatureF,DewpointF,PressureIn,WindDirection,WindDirectionDegrees,WindSpeedMPH,WindSpeedGustMPH,Humidity,HourlyPrecipIn,Conditions,Clouds,dailyrainin,SolarRadiationWatts/m^2,SoftwareType,DateUTC
2013-12-24 00:00:00,47.3,45.4,28.28,South,186,8.0,20.0,93,0.00,RA,,0.00,0.0,WeatherDisplay:10.37,2013-12-24 00:00:00,
2013-12-24 00:05:00,47.3,45.4,28.28,South,180,6.0,18.0,93,0.00,RA,,0.00,0.0,WeatherDisplay:10.37,2013-12-24 00:05:00,
2013-12-24 00:10:00,47.3,45.4,28.28,South,179,12.0,20.0,93,0.00,RA,,0.00,0.0,WeatherDisplay:10.37,2013-12-24 00:10:00,
2013-12-24 00:20:00,47.2,45.6,28.27,South,184,7.0,21.0,94,0.00,CLR,,0.00,0.0,WeatherDisplay:10.37,2013-12-24 00:20:00,
2013-12-24 00:25:00,47.2,45.6,28.26,SSW,192,8.0,18.0,94,0.00,CLR,,0.00,0.0,WeatherDisplay:10.37,2013-12-24 00:25:00,
2013-12-24 00:30:00,47.2,45.6,28.26,South,186,6.0,20.0,94,0.00,CLR,,0.00,0.0,WeatherDisplay:10.37,2013-12-24 00:30:00,
2013-12-24 00:35:00,47.1,45.5,28.25,SSW,192,8.0,18.0,94,0.00,CLR,,0.00,0.0,WeatherDisplay:10.37,2013-12-24 00:35:00,
2013-12-24 00:40:00,47.1,45.2,28.25,SSW,196,9.0,15.0,93,0.00,CLR,,0.01,0.0,WeatherDisplay:10.37,2013-12-24 00:40:00,
2013-12-24 00:50:00,47.0,45.1,28.25,SSW,194,9.0,17.0,93,0.01,RA,,0.02,0.0,WeatherDisplay:10.37,2013-12-24 00:50:00,
2013-12-24 01:00:00,47.0,45.4,28.25,South,191,12.0,21.0,94,0.00,RA,,0.02,0.0,WeatherDisplay:10.37,2013-12-24 01:00:00,
2013-12-24 01:05:00,47.0,45.4,28.24,SSW,192,9.0,22.0,94,0.00,,,0.02,0.0,WeatherDisplay:10.37,2013-12-24 01:05:00,
2013-12-24 01:10:00,46.9,45.3,28.24,SSW,198,12.0,20.0,94,0.00,CLR,,0.02,0.0,WeatherDisplay:10.37,2013-12-24 01:10:00,
2013-12-24 01:15:00,46.9,45.3,28.23,South,183,8.0,16.0,94,0.01,RA,,0.02,0.0,WeatherDisplay:10.37,2013-12-24 01:15:00,
2013-12-24 01:20:00,46.8,45.2,28.23,South,191,7.0,17.0,94,0.00,RA,,0.02,0.0,WeatherDisplay:10.37,2013-12-24 01:20:00,
2013-12-24 01:25:00,46.8,45.2,28.23,SSW,200,8.0,16.0,94,0.00,RA,,0.02,0.0,WeatherDisplay:10.37,2013-12-24 01:25:00,
2013-12-24 01:30:00,46.8,45.2,28.23,SSW,196,9.0,20.0,94,0.00,CLR,,0.03,0.0,WeatherDisplay:10.37,2013-12-24 01:30:00,
2013-12-24 01:35:00,46.5,44.6,28.25,SW,219,17.0,28.0,93,0.02,RA,,0.05,0.0,WeatherDisplay:10.37,2013-12-24 01:35:00,
2013-12-24 01:40:00,45.6,43.2,28.25,SW,218,16.0,27.0,91,0.00,RA,,0.05,0.0,WeatherDisplay:10.37,2013-12-24 01:40:00,
2013-12-24 01:50:00,44.6,41.6,28.24,SW,220,16.0,31.0,89,0.00,,,0.05,0.0,WeatherDisplay:10.37,2013-12-24 01:50:00,
2013-12-24 02:00:00,44.4,41.3,28.24,SSW,213,12.0,22.0,89,0.00,CLR,,0.05,0.0,WeatherDisplay:10.37,2013-12-24 02:00:00,
2013-12-24 02:05:00,44.2,41.2,28.25,SSW,210,18.0,25.0,89,0.00,CLR,,0.05,0.0,WeatherDisplay:10.37,2013-12-24 02:05:00,
2013-12-24 02:10:00,44.1,41.1,28.25,SSW,200,13.0,27.0,89,0.00,CLR,,0.05,0.0,WeatherDisplay:10.37,2013-12-24 02:10:00,
2013-12-24 02:15:00,44.0,41.3,28.26,SSW,205,14.0,24.0,90,0.00,CLR,,0.05,0.0,WeatherDisplay:10.37,2013-12-24 02:15:00,
2013-12-24 02:20:00,43.6,40.6,28.29,SW,221,24.0,43.0,89,0.00,,,0.05,0.0,WeatherDisplay:10.37,2013-12-24 02:20:00,
2013-12-24 02:25:00,41.9,38.6,28.28,SW,217,16.0,29.0,88,0.01,RA,,0.05,0.0,WeatherDisplay:10.37,2013-12-24 02:25:00,
2013-12-24 02:30:00,40.9,37.9,28.27,SSW,207,14.0,21.0,89,0.00,RA,,0.05,0.0,WeatherDisplay:10.37,2013-12-24 02:30:00,
2013-12-24 02:35:00,40.5,37.8,28.27,SW,217,14.0,22.0,90,0.00,RA,,0.05,0.0,WeatherDisplay:10.37,2013-12-24 02:35:00,
2013-12-24 02:40:00,40.3,37.6,28.27,SSW,213,10.0,17.0,90,0.00,CLR,,0.05,0.0,WeatherDisplay:10.37,2013-12-24 02:40:00,
2013-12-24 02:45:00,40.2,37.8,28.27,SW,214,12.0,18.0,91,0.00,CLR,,0.05,0.0,WeatherDisplay:10.37,2013-12-24 02:45:00,
2013-12-24 02:50:00,40.2,37.8,28.27,SW,225,16.0,20.0,91,0.00,CLR,,0.05,0.0,WeatherDisplay:10.37,2013-12-24 02:50:00,
2013-12-24 02:55:00,40.2,37.8,28.28,SW,222,13.0,18.0,91,0.00,CLR,,0.05,0.0,WeatherDisplay:10.37,2013-12-24 02:55:00,
2013-12-24 03:00:00,40.4,37.9,28.28,SW,219,18.0,27.0,91,0.00,CLR,,0.05,0.0,WeatherDisplay:10.37,2013-12-24 03:00:00,
2013-12-24 03:05:00,40.4,37.4,28.29,SW,214,17.0,35.0,89,0.00,CLR,,0.05,0.0,WeatherDisplay:10.37,2013-12-24 03:05:00,
2013-12-24 03:10:00,40.4,36.5,28.29,SW,215,16.0,34.0,86,0.00,CLR,,0.05,0.0,WeatherDisplay:10.37,2013-12-24 03:10:00,
2013-12-24 03:15:00,40.2,36.3,28.29,SW,215,16.0,28.0,86,0.00,CLR,,0.05,0.0,WeatherDisplay:10.37,2013-12-24 03:15:00,
2013-12-24 03:20:00,40.0,35.8,28.29,SW,215,15.0,24.0,85,0.00,CLR,,0.05,0.0,WeatherDisplay:10.37,2013-12-24 03:20:00,
2013-12-24 03:30:00,39.6,35.8,28.29,SW,216,15.0,23.0,86,0.00,CLR,,0.05,0.0,WeatherDisplay:10.37,2013-12-24 03:30:00,
2013-12-24 03:35:00,39.6,35.8,28.30,SW,217,16.0,32.0,86,0.00,CLR,,0.05,0.0,WeatherDisplay:10.37,2013-12-24 03:35:00,
2013-12-24 03:40:00,39.5,35.7,28.29,SW,219,15.0,35.0,86,0.00,CLR,,0.05,0.0,WeatherDisplay:10.37,2013-12-24 03:40:00,
2013-12-24 03:45:00,39.5,35.6,28.30,SSW,213,15.0,29.0,86,0.00,CLR,,0.05,0.0,WeatherDisplay:10.37,2013-12-24 03:45:00,
2013-12-24 03:50:00,39.2,35.1,28.30,SSW,211,17.0,24.0,85,0.00,CLR,,0.05,0.0,WeatherDisplay:10.37,2013-12-24 03:50:00,
2013-12-24 04:00:00,38.8,34.7,28.30,SW,222,17.0,25.0,85,0.00,CLR,,0.05,0.0,WeatherDisplay:10.37,2013-12-24 04:00:00,
2013-12-24 04:05:00,38.6,34.5,28.30,SW,219,14.0,25.0,85,0.00,CLR,,0.05,0.0,WeatherDisplay:10.37,2013-12-24 04:05:00,
2013-12-24 04:10:00,38.4,34.3,28.30,SW,218,16.0,26.0,85,0.00,CLR,,0.05,0.0,WeatherDisplay:10.37,2013-12-24 04:10:00,
2013-12-24 04:20:00,38.3,34.2,28.30,SSW,213,16.0,26.0,85,0.00,CLR,,0.05,0.0,WeatherDisplay:10.37,2013-12-24 04:20:00,
2013-12-24 04:25:00,38.2,34.1,28.30,SSW,213,15.0,24.0,85,0.00,CLR,,0.05,0.0,WeatherDisplay:10.37,2013-12-24 04:25:00,
2013-12-24 04:30:00,38.0,33.9,28.29,SW,221,15.0,29.0,85,0.00,CLR,,0.05,0.0,WeatherDisplay:10.37,2013-12-24 04:30:00,
2013-12-24 04:40:00,38.0,33.6,28.30,SW,222,15.0,33.0,84,0.00,CLR,,0.05,0.0,WeatherDisplay:10.37,2013-12-24 04:40:00,
2013-12-24 04:45:00,37.9,33.5,28.30,SW,223,16.0,28.0,84,0.00,CLR,,0.05,0.0,WeatherDisplay:10.37,2013-12-24 04:45:00,
2013-12-24 04:50:00,37.8,33.4,28.30,SW,214,18.0,28.0,84,0.00,CLR,,0.05,0.0,WeatherDisplay:10.37,2013-12-24 04:50:00,
2013-12-24 05:00:00,37.7,33.3,28.30,SSW,208,16.0,31.0,84,0.00,CLR,,0.05,0.0,WeatherDisplay:10.37,2013-12-24 05:00:00,
2013-12-24 05:05:00,37.6,32.9,28.30,SSW,209,17.0,39.0,83,0.00,CLR,,0.05,0.0,WeatherDisplay:10.37,2013-12-24 05:05:00,
2013-12-24 05:10:00,37.7,32.7,28.30,SSW,213,20.0,37.0,82,0.00,,,0.05,0.0,WeatherDisplay:10.37,2013-12-24 05:10:00,
2013-12-24 05:15:00,37.6,32.6,28.31,SSW,210,17.0,33.0,82,0.00,,,0.05,0.0,WeatherDisplay:10.37,2013-12-24 05:15:00,
2013-12-24 05:20:00,37.6,32.6,28.31,SSW,212,15.0,33.0,82,0.00,CLR,,0.05,0.0,WeatherDisplay:10.37,2013-12-24 05:20:00,
2013-12-24 05:25:00,37.6,32.9,28.31,SW,220,16.0,26.0,83,0.00,CLR,,0.05,0.0,WeatherDisplay:10.37,2013-12-24 05:25:00,
2013-12-24 05:30:00,37.6,32.9,28.31,SW,220,15.0,21.0,83,0.00,CLR,,0.05,0.0,WeatherDisplay:10.37,2013-12-24 05:30:00,
2013-12-24 05:35:00,37.6,33.2,28.32,SW,218,15.0,30.0,84,0.00,CLR,,0.05,0.0,WeatherDisplay:10.37,2013-12-24 05:35:00,
2013-12-24 05:40:00,37.7,33.0,28.32,SSW,213,20.0,35.0,83,0.00,CLR,,0.05,0.0,WeatherDisplay:10.37,2013-12-24 05:40:00,
2013-12-24 05:50:00,37.9,32.9,28.32,SSW,209,16.0,32.0,82,0.00,CLR,,0.05,0.0,WeatherDisplay:10.37,2013-12-24 05:50:00,
2013-12-24 05:55:00,37.9,32.9,28.32,SW,214,22.0,36.0,82,0.00,,,0.05,0.0,WeatherDisplay:10.37,2013-12-24 05:55:00,
2013-12-24 06:00:00,38.0,33.0,28.32,SW,217,16.0,27.0,82,0.00,CLR,,0.05,0.0,WeatherDisplay:10.37,2013-12-24 06:00:00,
2013-12-24 06:10:00,37.9,33.2,28.33,SW,217,14.0,22.0,83,0.00,CLR,,0.05,0.0,WeatherDisplay:10.37,2013-12-24 06:10:00,
2013-12-24 06:20:00,37.9,33.2,28.33,SSW,195,18.0,32.0,83,0.00,CLR,,0.05,0.0,WeatherDisplay:10.37,2013-12-24 06:20:00,
2013-12-24 06:25:00,38.0,33.3,28.32,SW,215,14.0,31.0,83,0.00,CLR,,0.05,0.0,WeatherDisplay:10.37,2013-12-24 06:25:00,
2013-12-24 06:30:00,37.8,33.1,28.31,SW,214,14.0,22.0,83,0.00,CLR,,0.05,0.0,WeatherDisplay:10.37,2013-12-24 06:30:00,
2013-12-24 06:40:00,37.5,32.8,28.31,SW,217,10.0,22.0,83,0.00,CLR,,0.05,0.0,WeatherDisplay:10.37,2013-12-24 06:40:00,
2013-12-24 06:50:00,37.4,32.7,28.31,SSW,209,15.0,22.0,83,0.00,CLR,,0.05,0.0,WeatherDisplay:10.37,2013-12-24 06:50:00,
2013-12-24 06:55:00,37.3,32.6,28.31,SSW,205,13.0,24.0,83,0.00,CLR,,0.05,0.0,WeatherDisplay:10.37,2013-12-24 06:55:00,
2013-12-24 07:00:00,37.4,32.4,28.32,SSW,201,13.0,20.0,82,0.00,CLR,,0.05,0.0,WeatherDisplay:10.37,2013-12-24 07:00:00,
2013-12-24 07:05:00,37.4,32.4,28.31,SSW,205,15.0,28.0,82,0.00,CLR,,0.05,0.0,WeatherDisplay:10.37,2013-12-24 07:05:00,
2013-12-24 07:10:00,37.5,32.2,28.32,SSW,204,10.0,22.0,81,0.00,CLR,,0.05,0.0,WeatherDisplay:10.37,2013-12-24 07:10:00,
2013-12-24 07:20:00,37.4,32.1,28.33,SSW,207,15.0,28.0,81,0.00,CLR,,0.05,0.0,WeatherDisplay:10.37,2013-12-24 07:20:00,
2013-12-24 07:30:00,37.3,32.0,28.33,SSW,201,14.0,30.0,81,0.00,CLR,,0.05,0.0,WeatherDisplay:10.37,2013-12-24 07:30:00,
2013-12-24 07:35:00,37.3,32.0,28.32,SSW,208,10.0,25.0,81,0.00,CLR,,0.05,0.0,WeatherDisplay:10.37,2013-12-24 07:35:00,
2013-12-24 07:40:00,37.2,31.9,28.32,SSW,199,9.0,18.0,81,0.00,CLR,,0.05,0.0,WeatherDisplay:10.37,2013-12-24 07:40:00,
2013-12-24 07:45:00,37.0,31.7,28.32,South,189,8.0,18.0,81,0.00,CLR,,0.05,0.0,WeatherDisplay:10.37,2013-12-24 07:45:00,
2013-12-24 07:50:00,36.8,32.1,28.32,SSW,196,10.0,26.0,83,0.00,CLR,,0.05,0.0,WeatherDisplay:10.37,2013-12-24 07:50:00,
2013-12-24 07:55:00,36.8,32.1,28.32,SSW,207,10.0,23.0,83,0.00,CLR,,0.05,0.0,WeatherDisplay:10.37,2013-12-24 07:55:00,
2013-12-24 08:00:00,36.8,32.1,28.33,SSW,206,8.0,20.0,83,0.00,CLR,,0.05,0.0,WeatherDisplay:10.37,2013-12-24 08:00:00,
2013-12-24 08:05:00,36.8,32.4,28.32,SSW,199,8.0,23.0,84,0.00,CLR,,0.05,0.0,WeatherDisplay:10.37,2013-12-24 08:05:00,
2013-12-24 08:10:00,36.8,32.4,28.32,SSW,204,8.0,17.0,84,0.00,CLR,,0.05,0.0,WeatherDisplay:10.37,2013-12-24 08:10:00,
2013-12-24 08:20:00,37.2,32.5,28.32,SW,215,14.0,22.0,83,0.00,OVC,,0.05,0.0,WeatherDisplay:10.37,2013-12-24 08:20:00,
2013-12-24 08:25:00,37.4,32.7,28.31,SSW,209,13.0,20.0,83,0.00,OVC,,0.05,0.0,WeatherDisplay:10.37,2013-12-24 08:25:00,
2013-12-24 08:30:00,37.6,32.9,28.31,SSW,209,10.0,21.0,83,0.00,OVC,,0.05,0.0,WeatherDisplay:10.37,2013-12-24 08:30:00,
2013-12-24 08:35:00,37.7,33.3,28.31,SSW,207,13.0,24.0,84,0.00,OVC,,0.05,0.0,WeatherDisplay:10.37,2013-12-24 08:35:00,
2013-12-24 08:40:00,37.5,33.1,28.31,SSW,206,17.0,32.0,84,0.00,OVC,,0.05,0.0,WeatherDisplay:10.37,2013-12-24 08:40:00,
2013-12-24 08:45:00,37.2,33.4,28.31,SSW,207,12.0,23.0,86,0.00,OVC,,0.05,0.0,WeatherDisplay:10.37,2013-12-24 08:45:00,
2013-12-24 08:50:00,36.9,33.4,28.32,SSW,207,12.0,26.0,87,0.00,OVC,,0.05,0.0,WeatherDisplay:10.37,2013-12-24 08:50:00,
2013-12-24 09:00:00,37.4,32.4,28.33,SW,215,17.0,38.0,82,0.01,RA,,0.06,5.0,WeatherDisplay:10.37,2013-12-24 09:00:00,
2013-12-24 09:05:00,37.8,31.8,28.32,SSW,212,20.0,35.0,79,0.00,RA,,0.06,7.0,WeatherDisplay:10.37,2013-12-24 09:05:00,
2013-12-24 09:10:00,38.0,31.7,28.33,SSW,209,17.0,31.0,78,0.00,RA,,0.06,0.0,WeatherDisplay:10.37,2013-12-24 09:10:00,
2013-12-24 09:15:00,38.1,31.5,28.33,SSW,211,15.0,26.0,77,0.00,CLR,,0.06,0.0,WeatherDisplay:10.37,2013-12-24 09:15:00,
2013-12-24 09:20:00,38.3,32.0,28.33,SSW,211,18.0,37.0,78,0.00,OVC,,0.06,0.0,WeatherDisplay:10.37,2013-12-24 09:20:00,
2013-12-24 09:25:00,38.2,32.3,28.32,SSW,205,14.0,35.0,79,0.00,BKN,,0.06,5.0,WeatherDisplay:10.37,2013-12-24 09:25:00,
2013-12-24 09:30:00,38.1,32.2,28.32,SSW,210,16.0,26.0,79,0.00,BKN,,0.06,12.0,WeatherDisplay:10.37,2013-12-24 09:30:00,
2013-12-24 09:35:00,38.1,32.2,28.33,SW,217,18.0,35.0,79,0.00,BKN,,0.06,12.0,WeatherDisplay:10.37,2013-12-24 09:35:00,
2013-12-24 09:40:00,38.2,32.3,28.33,SSW,200,16.0,30.0,79,0.00,BKN,,0.06,16.0,WeatherDisplay:10.37,2013-12-24 09:40:00,
2013-12-24 09:45:00,38.3,32.0,28.32,SSW,206,15.0,36.0,78,0.00,BKN,,0.06,18.0,WeatherDisplay:10.37,2013-12-24 09:45:00,
2013-12-24 09:50:00,38.2,32.0,28.32,SSW,210,20.0,37.0,78,0.00,BKN,,0.06,30.0,WeatherDisplay:10.37,2013-12-24 09:50:00,
2013-12-24 10:00:00,38.2,32.0,28.33,SW,216,12.0,27.0,78,0.00,SCT,,0.06,49.0,WeatherDisplay:10.37,2013-12-24 10:00:00,
2013-12-24 10:05:00,38.3,32.0,28.33,SW,218,9.0,23.0,78,0.00,SCT,,0.06,49.0,WeatherDisplay:10.37,2013-12-24 10:05:00,
2013-12-24 10:10:00,38.4,31.8,28.33,SSW,213,16.0,25.0,77,0.00,SCT,,0.06,56.0,WeatherDisplay:10.37,2013-12-24 10:10:00,
2013-12-24 10:20:00,38.7,31.8,28.34,SW,217,14.0,22.0,76,0.00,SCT,,0.06,69.0,WeatherDisplay:10.37,2013-12-24 10:20:00,
2013-12-24 10:30:00,38.7,32.4,28.34,SSW,200,15.0,23.0,78,0.00,SCT,,0.06,51.0,WeatherDisplay:10.37,2013-12-24 10:30:00,
2013-12-24 10:35:00,38.7,32.4,28.34,SSW,205,13.0,27.0,78,0.00,SCT,,0.06,54.0,WeatherDisplay:10.37,2013-12-24 10:35:00,
2013-12-24 10:40:00,38.7,32.4,28.33,SSW,212,13.0,24.0,78,0.00,BKN,,0.06,37.0,WeatherDisplay:10.37,2013-12-24 10:40:00,
2013-12-24 10:45:00,38.7,32.4,28.33,SSW,213,15.0,24.0,78,0.00,BKN,,0.06,32.0,WeatherDisplay:10.37,2013-12-24 10:45:00,
2013-12-24 10:50:00,38.7,32.4,28.33,SSW,207,15.0,25.0,78,0.00,BKN,,0.06,33.0,WeatherDisplay:10.37,2013-12-24 10:50:00,
2013-12-24 10:55:00,38.7,32.4,28.33,SSW,202,15.0,30.0,78,0.00,BKN,,0.06,39.0,WeatherDisplay:10.37,2013-12-24 10:55:00,
2013-12-24 11:00:00,38.8,32.5,28.33,SSW,206,16.0,32.0,78,0.00,BKN,,0.06,40.0,WeatherDisplay:10.37,2013-12-24 11:00:00,
2013-12-24 11:10:00,38.9,32.3,28.32,SSW,203,13.0,24.0,77,0.00,BKN,,0.06,62.0,WeatherDisplay:10.37,2013-12-24 11:10:00,
2013-12-24 11:15:00,39.1,32.5,28.33,SSW,203,14.0,26.0,77,0.00,BKN,,0.06,74.0,WeatherDisplay:10.37,2013-12-24 11:15:00,
2013-12-24 11:20:00,39.3,32.4,28.33,SSW,201,16.0,33.0,76,0.00,SCT,,0.06,70.0,WeatherDisplay:10.37,2013-12-24 11:20:00,
2013-12-24 11:30:00,39.8,32.5,28.33,SSW,201,15.0,27.0,75,0.00,SCT,,0.06,79.0,WeatherDisplay:10.37,2013-12-24 11:30:00,
2013-12-24 11:35:00,40.0,32.7,28.33,SSW,202,10.0,25.0,75,0.00,SCT,,0.06,79.0,WeatherDisplay:10.37,2013-12-24 11:35:00,
2013-12-24 11:40:00,40.1,32.4,28.33,SSW,201,15.0,30.0,74,0.00,SCT,,0.06,77.0,WeatherDisplay:10.37,2013-12-24 11:40:00,
2013-12-24 11:45:00,40.1,32.1,28.32,SSW,198,18.0,29.0,73,0.01,RA,,0.07,77.0,WeatherDisplay:10.37,2013-12-24 11:45:00,
2013-12-24 11:50:00,40.2,32.2,28.32,SSW,201,15.0,35.0,73,0.00,RA,,0.07,97.0,WeatherDisplay:10.37,2013-12-24 11:50:00,
2013-12-24 11:55:00,40.3,32.0,28.32,SSW,205,15.0,35.0,72,0.00,RA,,0.07,83.0,WeatherDisplay:10.37,2013-12-24 11:55:00,
2013-12-24 12:00:00,40.3,32.0,28.32,SSW,204,16.0,35.0,72,0.00,SCT,,0.07,67.0,WeatherDisplay:10.37,2013-12-24 12:00:00,
2013-12-24 12:05:00,40.2,32.2,28.32,SSW,201,14.0,30.0,73,0.00,BKN,,0.07,60.0,WeatherDisplay:10.37,2013-12-24 12:05:00,
2013-12-24 12:10:00,40.2,31.9,28.32,SSW,195,16.0,30.0,72,0.00,BKN,,0.07,67.0,WeatherDisplay:10.37,2013-12-24 12:10:00,
2013-12-24 12:15:00,40.3,32.3,28.33,SSW,200,18.0,33.0,73,0.00,BKN,,0.07,69.0,WeatherDisplay:10.37,2013-12-24 12:15:00,
2013-12-24 12:20:00,40.4,32.4,28.32,SSW,198,20.0,37.0,73,0.00,BKN,,0.07,44.0,WeatherDisplay:10.37,2013-12-24 12:20:00,
2013-12-24 12:25:00,40.5,32.2,28.32,SSW,202,14.0,35.0,72,0.00,BKN,,0.07,53.0,WeatherDisplay:10.37,2013-12-24 12:25:00,
2013-12-24 12:35:00,40.5,32.5,28.31,SSW,212,17.0,33.0,73,0.00,BKN,,0.07,72.0,WeatherDisplay:10.37,2013-12-24 12:35:00,
2013-12-24 12:45:00,40.5,32.5,28.30,SSW,209,18.0,31.0,73,0.00,SCT,,0.07,62.0,WeatherDisplay:10.37,2013-12-24 12:45:00,
2013-12-24 12:50:00,40.5,32.9,28.30,SW,215,15.0,28.0,74,0.00,SCT,,0.07,93.0,WeatherDisplay:10.37,2013-12-24 12:50:00,
2013-12-24 12:55:00,40.5,32.9,28.30,SSW,207,16.0,32.0,74,0.00,SCT,,0.07,63.0,WeatherDisplay:10.37,2013-12-24 12:55:00,
2013-12-24 13:00:00,40.6,33.3,28.30,SW,215,13.0,25.0,75,0.00,SCT,,0.07,42.0,WeatherDisplay:10.37,2013-12-24 13:00:00,
2013-12-24 13:05:00,40.6,33.3,28.30,SW,219,18.0,37.0,75,0.00,BKN,,0.07,60.0,WeatherDisplay:10.37,2013-12-24 13:05:00,
2013-12-24 13:10:00,40.5,33.9,28.30,SSW,209,17.0,37.0,77,0.00,BKN,,0.07,35.0,WeatherDisplay:10.37,2013-12-24 13:10:00,
2013-12-24 13:15:00,40.0,34.7,28.31,SSW,207,20.0,38.0,81,0.00,BKN,,0.07,32.0,WeatherDisplay:10.37,2013-12-24 13:15:00,
2013-12-24 13:20:00,39.2,34.8,28.31,SW,217,14.0,28.0,84,0.01,RA,,0.08,37.0,WeatherDisplay:10.37,2013-12-24 13:20:00,
2013-12-24 13:25:00,38.5,35.0,28.30,SW,216,17.0,24.0,87,0.00,RA,,0.08,19.0,WeatherDisplay:10.37,2013-12-24 13:25:00,
2013-12-24 13:30:00,38.0,34.7,28.30,SSW,203,13.0,20.0,88,0.00,RA,,0.08,32.0,WeatherDisplay:10.37,2013-12-24 13:30:00,
2013-12-24 13:40:00,37.5,34.9,28.29,SSW,196,15.0,26.0,90,0.00,RA,,0.09,67.0,WeatherDisplay:10.37,2013-12-24 13:40:00,
2013-12-24 13:50:00,37.5,35.1,28.29,SSW,193,14.0,30.0,91,0.00,SCT,,0.09,54.0,WeatherDisplay:10.37,2013-12-24 13:50:00,
2013-12-24 13:55:00,37.5,35.1,28.29,SSW,202,15.0,29.0,91,0.00,BKN,,0.09,32.0,WeatherDisplay:10.37,2013-12-24 13:55:00,
2013-12-24 14:00:00,37.5,35.1,28.29,SSW,206,10.0,31.0,91,0.01,RA,,0.09,21.0,WeatherDisplay:10.37,2013-12-24 14:00:00,
2013-12-24 14:05:00,37.5,35.4,28.28,SW,214,14.0,24.0,92,0.00,RA,,0.09,16.0,WeatherDisplay:10.37,2013-12-24 14:05:00,
2013-12-24 14:10:00,37.5,35.4,28.29,SSW,204,13.0,22.0,92,0.00,RA,,0.09,25.0,WeatherDisplay:10.37,2013-12-24 14:10:00,
2013-12-24 14:15:00,37.4,35.3,28.29,SSW,202,13.0,28.0,92,0.00,BKN,,0.09,23.0,WeatherDisplay:10.37,2013-12-24 14:15:00,
2013-12-24 14:20:00,37.3,35.2,28.28,SSW,207,10.0,21.0,92,0.00,BKN,,0.09,21.0,WeatherDisplay:10.37,2013-12-24 14:20:00,
2013-12-24 14:25:00,37.3,35.2,28.29,SSW,211,14.0,25.0,92,0.00,BKN,,0.09,14.0,WeatherDisplay:10.37,2013-12-24 14:25:00,
2013-12-24 14:30:00,37.4,35.3,28.29,SSW,207,10.0,20.0,92,0.00,BKN,,0.09,11.0,WeatherDisplay:10.37,2013-12-24 14:30:00,
2013-12-24 14:40:00,37.5,35.4,28.29,SSW,205,10.0,22.0,92,0.00,BKN,,0.09,0.0,WeatherDisplay:10.37,2013-12-24 14:40:00,
2013-12-24 14:50:00,37.8,35.7,28.30,SSW,207,10.0,20.0,92,0.00,OVC,,0.09,0.0,WeatherDisplay:10.37,2013-12-24 14:50:00,
2013-12-24 15:00:00,38.1,35.7,28.30,SW,217,10.0,20.0,91,0.00,BKN,,0.09,5.0,WeatherDisplay:10.37,2013-12-24 15:00:00,
2013-12-24 15:05:00,38.2,35.8,28.30,SSW,208,15.0,23.0,91,0.00,BKN,,0.09,11.0,WeatherDisplay:10.37,2013-12-24 15:05:00,
2013-12-24 15:10:00,38.3,35.9,28.30,SSW,213,9.0,20.0,91,0.00,BKN,,0.09,14.0,WeatherDisplay:10.37,2013-12-24 15:10:00,
2013-12-24 15:15:00,38.4,36.0,28.30,SW,215,14.0,23.0,91,0.00,CLR,,0.09,30.0,WeatherDisplay:10.37,2013-12-24 15:15:00,
2013-12-24 15:20:00,38.6,35.9,28.30,SW,216,10.0,21.0,90,0.00,CLR,,0.09,28.0,WeatherDisplay:10.37,2013-12-24 15:20:00,
2013-12-24 15:25:00,38.7,36.0,28.30,SW,215,18.0,30.0,90,0.00,CLR,,0.09,18.0,WeatherDisplay:10.37,2013-12-24 15:25:00,
2013-12-24 15:30:00,38.7,35.7,28.30,SSW,213,17.0,28.0,89,0.00,FEW,,0.09,12.0,WeatherDisplay:10.37,2013-12-24 15:30:00,
2013-12-24 15:35:00,38.7,35.7,28.31,SW,219,14.0,27.0,89,0.00,FEW,,0.09,7.0,WeatherDisplay:10.37,2013-12-24 15:35:00,
2013-12-24 15:40:00,38.7,35.7,28.31,SW,216,16.0,26.0,89,0.00,CLR,,0.09,5.0,WeatherDisplay:10.37,2013-12-24 15:40:00,
2013-12-24 15:50:00,38.7,35.7,28.31,SW,222,14.0,22.0,89,0.00,OVC,,0.09,0.0,WeatherDisplay:10.37,2013-12-24 15:50:00,
2013-12-24 15:55:00,38.6,35.6,28.31,SW,219,18.0,29.0,89,0.00,OVC,,0.09,0.0,WeatherDisplay:10.37,2013-12-24 15:55:00,
2013-12-24 16:00:00,38.6,35.6,28.32,SW,215,15.0,24.0,89,0.00,CLR,,0.09,0.0,WeatherDisplay:10.37,2013-12-24 16:00:00,
2013-12-24 16:05:00,38.7,35.7,28.32,SSW,212,18.0,29.0,89,0.00,CLR,,0.09,0.0,WeatherDisplay:10.37,2013-12-24 16:05:00,
2013-12-24 16:10:00,38.7,35.7,28.32,SW,218,14.0,28.0,89,0.00,CLR,,0.09,0.0,WeatherDisplay:10.37,2013-12-24 16:10:00,
2013-12-24 16:15:00,38.7,35.7,28.32,SW,218,17.0,28.0,89,0.00,CLR,,0.09,0.0,WeatherDisplay:10.37,2013-12-24 16:15:00,
2013-12-24 16:20:00,38.7,35.8,28.33,SW,218,14.0,22.0,89,0.00,CLR,,0.09,0.0,WeatherDisplay:10.37,2013-12-24 16:20:00,
2013-12-24 16:25:00,38.7,35.7,28.33,SW,222,21.0,29.0,89,0.00,CLR,,0.09,0.0,WeatherDisplay:10.37,2013-12-24 16:25:00,
2013-12-24 16:30:00,38.8,35.5,28.33,SSW,210,16.0,24.0,88,0.00,CLR,,0.09,0.0,WeatherDisplay:10.37,2013-12-24 16:30:00,
2013-12-24 16:35:00,38.7,35.5,28.33,SSW,209,20.0,32.0,88,0.00,CLR,,0.09,0.0,WeatherDisplay:10.37,2013-12-24 16:35:00,
2013-12-24 16:40:00,38.8,35.6,28.33,SSW,210,12.0,24.0,88,0.00,CLR,,0.09,0.0,WeatherDisplay:10.37,2013-12-24 16:40:00,
2013-12-24 16:45:00,38.8,35.6,28.33,SSW,207,17.0,27.0,88,0.00,CLR,,0.09,0.0,WeatherDisplay:10.37,2013-12-24 16:45:00,
2013-12-24 16:50:00,38.8,35.6,28.33,SSW,207,15.0,22.0,88,0.00,CLR,,0.09,0.0,WeatherDisplay:10.37,2013-12-24 16:50:00,
2013-12-24 16:55:00,38.8,35.6,28.33,SW,221,17.0,26.0,88,0.00,CLR,,0.09,0.0,WeatherDisplay:10.37,2013-12-24 16:55:00,
2013-12-24 17:00:00,38.8,35.6,28.33,SW,219,14.0,25.0,88,0.00,CLR,,0.09,0.0,WeatherDisplay:10.37,2013-12-24 17:00:00,
2013-12-24 17:10:00,38.8,35.8,28.34,SSW,200,12.0,24.0,89,0.00,CLR,,0.09,0.0,WeatherDisplay:10.37,2013-12-24 17:10:00,
2013-12-24 17:15:00,38.8,35.8,28.34,SSW,206,14.0,24.0,89,0.00,CLR,,0.09,0.0,WeatherDisplay:10.37,2013-12-24 17:15:00,
2013-12-24 17:20:00,38.8,35.8,28.34,SSW,213,13.0,28.0,89,0.00,CLR,,0.09,0.0,WeatherDisplay:10.37,2013-12-24 17:20:00,
2013-12-24 17:30:00,38.8,35.6,28.34,SW,214,14.0,26.0,88,0.00,CLR,,0.09,0.0,WeatherDisplay:10.37,2013-12-24 17:30:00,
2013-12-24 17:40:00,38.9,35.6,28.34,SSW,213,17.0,28.0,88,0.00,CLR,,0.09,0.0,WeatherDisplay:10.37,2013-12-24 17:40:00,
2013-12-24 17:50:00,39.1,35.8,28.35,SSW,211,17.0,30.0,88,0.00,CLR,,0.09,0.0,WeatherDisplay:10.37,2013-12-24 17:50:00,
2013-12-24 18:00:00,38.9,35.9,28.35,SSW,207,14.0,27.0,89,0.00,CLR,,0.09,0.0,WeatherDisplay:10.37,2013-12-24 18:00:00,
2013-12-24 18:05:00,38.7,35.7,28.35,SSW,207,16.0,26.0,89,0.00,CLR,,0.09,0.0,WeatherDisplay:10.37,2013-12-24 18:05:00,
2013-12-24 18:10:00,38.6,35.6,28.35,SW,222,16.0,20.0,89,0.00,CLR,,0.09,0.0,WeatherDisplay:10.37,2013-12-24 18:10:00,
2013-12-24 18:15:00,38.6,35.6,28.35,SW,220,14.0,24.0,89,0.00,CLR,,0.09,0.0,WeatherDisplay:10.37,2013-12-24 18:15:00,
2013-12-24 18:20:00,38.7,35.7,28.35,SSW,208,16.0,28.0,89,0.00,CLR,,0.09,0.0,WeatherDisplay:10.37,2013-12-24 18:20:00,
2013-12-24 18:25:00,38.8,35.6,28.35,SSW,207,17.0,28.0,88,0.00,CLR,,0.09,0.0,WeatherDisplay:10.37,2013-12-24 18:25:00,
2013-12-24 18:30:00,38.9,35.6,28.36,SW,214,15.0,30.0,88,0.00,CLR,,0.09,0.0,WeatherDisplay:10.37,2013-12-24 18:30:00,
2013-12-24 18:35:00,38.9,35.4,28.36,SW,214,15.0,27.0,87,0.00,CLR,,0.09,0.0,WeatherDisplay:10.37,2013-12-24 18:35:00,
2013-12-24 18:40:00,39.1,35.5,28.36,SSW,211,22.0,30.0,87,0.00,,,0.09,0.0,WeatherDisplay:10.37,2013-12-24 18:40:00,
2013-12-24 18:45:00,39.1,35.3,28.36,SW,214,17.0,37.0,86,0.00,,,0.09,0.0,WeatherDisplay:10.37,2013-12-24 18:45:00,
2013-12-24 18:50:00,39.1,35.3,28.36,SSW,209,14.0,30.0,86,0.00,CLR,,0.09,0.0,WeatherDisplay:10.37,2013-12-24 18:50:00,
2013-12-24 18:55:00,39.1,35.3,28.36,SSW,206,13.0,32.0,86,0.00,CLR,,0.09,0.0,WeatherDisplay:10.37,2013-12-24 18:55:00,
2013-12-24 19:00:00,39.3,35.4,28.37,SW,216,17.0,29.0,86,0.00,CLR,,0.09,0.0,WeatherDisplay:10.37,2013-12-24 19:00:00,
2013-12-24 19:05:00,39.3,35.5,28.37,SSW,210,14.0,32.0,86,0.00,CLR,,0.09,0.0,WeatherDisplay:10.37,2013-12-24 19:05:00,
2013-12-24 19:10:00,39.4,35.6,28.37,SSW,210,12.0,21.0,86,0.00,CLR,,0.09,0.0,WeatherDisplay:10.37,2013-12-24 19:10:00,
2013-12-24 19:15:00,39.3,35.5,28.37,SW,215,13.0,25.0,86,0.00,CLR,,0.09,0.0,WeatherDisplay:10.37,2013-12-24 19:15:00,
2013-12-24 19:20:00,39.3,35.5,28.38,SSW,213,13.0,23.0,86,0.00,CLR,,0.09,0.0,WeatherDisplay:10.37,2013-12-24 19:20:00,
2013-12-24 19:25:00,39.4,35.3,28.37,SW,217,17.0,31.0,85,0.00,CLR,,0.09,0.0,WeatherDisplay:10.37,2013-12-24 19:25:00,
2013-12-24 19:30:00,39.4,35.3,28.37,SSW,213,20.0,31.0,85,0.00,CLR,,0.09,0.0,WeatherDisplay:10.37,2013-12-24 19:30:00,
2013-12-24 19:35:00,39.4,35.3,28.37,SSW,206,14.0,28.0,85,0.00,CLR,,0.09,0.0,WeatherDisplay:10.37,2013-12-24 19:35:00,
2013-12-24 19:40:00,39.3,35.2,28.38,SSW,207,16.0,30.0,85,0.00,CLR,,0.09,0.0,WeatherDisplay:10.37,2013-12-24 19:40:00,
2013-12-24 19:50:00,39.3,35.2,28.38,SSW,208,15.0,32.0,85,0.00,CLR,,0.09,0.0,WeatherDisplay:10.37,2013-12-24 19:50:00,
2013-12-24 19:55:00,39.4,35.3,28.38,SSW,198,14.0,27.0,85,0.00,CLR,,0.09,0.0,WeatherDisplay:10.37,2013-12-24 19:55:00,
2013-12-24 20:00:00,39.4,35.3,28.38,SSW,213,16.0,26.0,85,0.00,CLR,,0.09,0.0,WeatherDisplay:10.37,2013-12-24 20:00:00,
2013-12-24 20:05:00,39.5,35.4,28.38,SSW,211,14.0,26.0,85,0.00,CLR,,0.09,0.0,WeatherDisplay:10.37,2013-12-24 20:05:00,
2013-12-24 20:10:00,39.4,35.0,28.38,SSW,212,18.0,30.0,84,0.00,CLR,,0.09,0.0,WeatherDisplay:10.37,2013-12-24 20:10:00,
2013-12-24 20:15:00,39.4,35.0,28.38,SSW,211,15.0,30.0,84,0.00,CLR,,0.09,0.0,WeatherDisplay:10.37,2013-12-24 20:15:00,
2013-12-24 20:20:00,39.3,34.9,28.38,SW,214,18.0,30.0,84,0.00,CLR,,0.09,0.0,WeatherDisplay:10.37,2013-12-24 20:20:00,
2013-12-24 20:30:00,39.4,35.0,28.38,SW,217,22.0,35.0,84,0.00,CLR,,0.09,0.0,WeatherDisplay:10.37,2013-12-24 20:30:00,
2013-12-24 20:35:00,39.5,35.0,28.38,SSW,211,14.0,27.0,84,0.00,CLR,,0.09,0.0,WeatherDisplay:10.37,2013-12-24 20:35:00,
2013-12-24 20:40:00,39.5,35.1,28.38,SW,222,17.0,33.0,84,0.00,CLR,,0.09,0.0,WeatherDisplay:10.37,2013-12-24 20:40:00,
2013-12-24 20:45:00,39.7,34.9,28.38,SW,220,17.0,34.0,83,0.00,CLR,,0.09,0.0,WeatherDisplay:10.37,2013-12-24 20:45:00,
2013-12-24 20:50:00,39.6,34.9,28.38,SSW,208,20.0,32.0,83,0.00,,,0.09,0.0,WeatherDisplay:10.37,2013-12-24 20:50:00,
2013-12-24 21:00:00,39.5,34.8,28.38,SW,224,15.0,26.0,83,0.00,CLR,,0.09,0.0,WeatherDisplay:10.37,2013-12-24 21:00:00,
2013-12-24 21:05:00,39.5,34.8,28.38,SW,223,16.0,29.0,83,0.00,CLR,,0.09,0.0,WeatherDisplay:10.37,2013-12-24 21:05:00,
2013-12-24 21:10:00,39.5,34.7,28.39,SSW,210,10.0,25.0,83,0.00,CLR,,0.09,0.0,WeatherDisplay:10.37,2013-12-24 21:10:00,
2013-12-24 21:15:00,39.5,34.8,28.39,SSW,204,9.0,25.0,83,0.00,CLR,,0.09,0.0,WeatherDisplay:10.37,2013-12-24 21:15:00,
2013-12-24 21:20:00,39.6,34.9,28.39,SSW,205,18.0,33.0,83,0.00,CLR,,0.09,0.0,WeatherDisplay:10.37,2013-12-24 21:20:00,
2013-12-24 21:25:00,39.7,35.0,28.38,SSW,206,14.0,37.0,83,0.00,,,0.09,0.0,WeatherDisplay:10.37,2013-12-24 21:25:00,
2013-12-24 21:30:00,39.8,34.8,28.38,SSW,211,17.0,36.0,82,0.00,CLR,,0.09,0.0,WeatherDisplay:10.37,2013-12-24 21:30:00,
2013-12-24 21:35:00,39.8,34.8,28.39,SSW,213,21.0,31.0,82,0.00,CLR,,0.09,0.0,WeatherDisplay:10.37,2013-12-24 21:35:00,
2013-12-24 21:40:00,39.9,34.9,28.38,SSW,204,20.0,27.0,82,0.00,CLR,,0.09,0.0,WeatherDisplay:10.37,2013-12-24 21:40:00,
2013-12-24 21:45:00,39.9,34.9,28.38,SSW,205,15.0,31.0,82,0.00,CLR,,0.09,0.0,WeatherDisplay:10.37,2013-12-24 21:45:00,
2013-12-24 21:50:00,40.0,34.9,28.39,SSW,213,18.0,30.0,82,0.00,CLR,,0.09,0.0,WeatherDisplay:10.37,2013-12-24 21:50:00,
2013-12-24 22:00:00,40.2,34.8,28.40,SW,215,16.0,28.0,81,0.00,,,0.09,0.0,WeatherDisplay:10.37,2013-12-24 22:00:00,
2013-12-24 22:05:00,40.3,34.9,28.40,SSW,209,21.0,32.0,81,0.00,CLR,,0.09,0.0,WeatherDisplay:10.37,2013-12-24 22:05:00,
2013-12-24 22:10:00,40.4,34.7,28.40,SSW,209,18.0,32.0,80,0.00,CLR,,0.09,0.0,WeatherDisplay:10.37,2013-12-24 22:10:00,
2013-12-24 22:15:00,40.4,35.0,28.40,SW,216,18.0,31.0,81,0.00,,,0.09,0.0,WeatherDisplay:10.37,2013-12-24 22:15:00,
2013-12-24 22:20:00,40.5,35.1,28.41,SW,214,20.0,40.0,81,0.00,CLR,,0.09,0.0,WeatherDisplay:10.37,2013-12-24 22:20:00,
2013-12-24 22:25:00,40.6,34.9,28.41,SSW,213,23.0,41.0,80,0.00,,,0.09,0.0,WeatherDisplay:10.37,2013-12-24 22:25:00,
2013-12-24 22:30:00,40.7,35.3,28.41,SW,221,21.0,35.0,81,0.00,CLR,,0.09,0.0,WeatherDisplay:10.37,2013-12-24 22:30:00,
2013-12-24 22:40:00,40.7,35.3,28.42,SSW,210,18.0,28.0,81,0.00,CLR,,0.09,0.0,WeatherDisplay:10.37,2013-12-24 22:40:00,
2013-12-24 22:45:00,40.7,35.3,28.42,SSW,212,21.0,28.0,81,0.00,CLR,,0.09,0.0,WeatherDisplay:10.37,2013-12-24 22:45:00,
2013-12-24 22:50:00,40.7,35.3,28.43,SW,214,25.0,40.0,81,0.00,,,0.09,0.0,WeatherDisplay:10.37,2013-12-24 22:50:00,
2013-12-24 23:00:00,40.9,35.5,28.42,SSW,212,17.0,31.0,81,0.00,CLR,,0.09,0.0,WeatherDisplay:10.37,2013-12-24 23:00:00,
2013-12-24 23:05:00,40.9,35.5,28.43,SSW,208,23.0,35.0,81,0.00,,,0.09,0.0,WeatherDisplay:10.37,2013-12-24 23:05:00,
2013-12-24 23:10:00,40.9,35.5,28.43,SSW,210,17.0,37.0,81,0.00,,,0.09,0.0,WeatherDisplay:10.37,2013-12-24 23:10:00,
2013-12-24 23:15:00,40.7,35.7,28.43,SW,216,18.0,36.0,82,0.00,,,0.09,0.0,WeatherDisplay:10.37,2013-12-24 23:15:00,
2013-12-24 23:20:00,40.5,35.8,28.43,SW,214,20.0,35.0,83,0.00,CLR,,0.09,0.0,WeatherDisplay:10.37,2013-12-24 23:20:00,
2013-12-24 23:25:00,40.4,35.9,28.43,SSW,213,20.0,33.0,84,0.00,CLR,,0.09,0.0,WeatherDisplay:10.37,2013-12-24 23:25:00,
2013-12-24 23:30:00,40.2,36.1,28.44,SSW,211,24.0,44.0,85,0.01,RA,,0.10,0.0,WeatherDisplay:10.37,2013-12-24 23:30:00,
2013-12-24 23:40:00,39.9,36.0,28.45,SW,223,22.0,39.0,86,0.00,RA,,0.10,0.0,WeatherDisplay:10.37,2013-12-24 23:40:00,
2013-12-24 23:45:00,39.8,36.2,28.45,SW,219,17.0,33.0,87,0.01,RA,,0.11,0.0,WeatherDisplay:10.37,2013-12-24 23:45:00,
2013-12-24 23:50:00,39.7,36.1,28.45,SW,220,16.0,43.0,87,0.00,RA,,0.11,0.0,WeatherDisplay:10.37,2013-12-24 23:50:00,
2013-12-24 23:55:00,39.7,36.4,28.45,SW,221,20.0,37.0,88,0.00,RA,,0.11,0.0,WeatherDisplay:10.37,2013-12-24 23:55:00,